Time,TemperatureF,DewpointF,PressureIn,WindDirection,WindDirectionDegrees,WindSpeedMPH,WindSpeedGustMPH,Humidity,HourlyPrecipIn,Conditions,Clouds,dailyrainin,SoftwareType,DateUTC
2013-06-05 00:00:00,72.6,71.4,30.04,SE,143,0.0,10.0,96,0.00,,,0.02,Wunderground v.1.15,2013-06-05 04:00:00,
2013-06-05 00:02:00,72.7,71.5,30.04,SE,143,0.0,10.0,96,0.00,,,0.02,Wunderground v.1.15,2013-06-05 04:02:00,
2013-06-05 00:06:00,72.7,71.5,30.04,SE,143,0.0,10.0,96,0.00,,,0.02,Wunderground v.1.15,2013-06-05 04:06:00,
2013-06-05 00:08:00,72.8,71.6,30.04,SE,143,0.0,10.0,96,0.00,,,0.02,Wunderground v.1.15,2013-06-05 04:08:00,
2013-06-05 00:10:00,72.8,71.6,30.04,SE,143,0.0,10.0,96,0.00,,,0.02,Wunderground v.1.15,2013-06-05 04:10:00,
2013-06-05 00:14:00,72.8,71.6,30.04,SE,143,0.0,10.0,96,0.00,,,0.02,Wunderground v.1.15,2013-06-05 04:14:00,
2013-06-05 00:20:00,72.9,71.7,30.04,SE,124,0.0,10.0,96,0.00,,,0.02,Wunderground v.1.15,2013-06-05 04:20:00,
2013-06-05 00:26:00,72.9,71.7,30.03,East,87,0.0,10.0,96,0.00,,,0.02,Wunderground v.1.15,2013-06-05 04:26:00,
2013-06-05 00:32:00,73.0,71.8,30.03,ESE,103,0.0,10.0,96,0.00,,,0.02,Wunderground v.1.15,2013-06-05 04:32:00,
2013-06-05 00:38:00,73.0,71.8,30.03,SSE,151,0.0,10.0,96,0.00,,,0.02,Wunderground v.1.15,2013-06-05 04:38:00,
2013-06-05 00:44:00,73.0,71.8,30.03,ESE,115,0.0,10.0,96,0.00,,,0.00,Wunderground v.1.15,2013-06-05 04:44:00,
2013-06-05 00:50:00,73.0,71.8,30.03,ESE,109,0.0,10.0,96,0.00,,,0.00,Wunderground v.1.15,2013-06-05 04:50:00,
2013-06-05 00:56:00,73.1,71.9,30.03,ESE,103,0.0,10.0,96,0.00,,,0.00,Wunderground v.1.15,2013-06-05 04:56:00,
2013-06-05 01:02:00,73.1,71.9,30.03,ESE,110,0.0,10.0,96,0.00,,,0.00,Wunderground v.1.15,2013-06-05 05:02:00,
2013-06-05 01:08:00,73.1,71.9,30.03,ESE,122,0.0,10.0,96,0.00,,,0.00,Wunderground v.1.15,2013-06-05 05:08:00,
2013-06-05 01:14:00,73.2,72.3,30.04,ESE,122,0.0,10.0,97,0.00,,,0.00,Wunderground v.1.15,2013-06-05 05:14:00,
2013-06-05 01:20:00,73.1,72.2,30.03,NNE,33,0.0,10.0,97,0.00,,,0.00,Wunderground v.1.15,2013-06-05 05:20:00,
2013-06-05 01:26:00,73.2,72.3,30.04,SE,134,0.0,10.0,97,0.00,,,0.00,Wunderground v.1.15,2013-06-05 05:26:00,
2013-06-05 01:32:00,73.3,72.4,30.03,SE,139,1.0,10.0,97,0.00,,,0.00,Wunderground v.1.15,2013-06-05 05:32:00,
2013-06-05 01:38:00,73.4,72.5,30.03,ESE,105,1.0,10.0,97,0.00,,,0.00,Wunderground v.1.15,2013-06-05 05:38:00,
2013-06-05 01:44:00,73.7,72.8,30.03,ESE,103,1.0,10.0,97,0.00,,,0.00,Wunderground v.1.15,2013-06-05 05:44:00,
2013-06-05 01:50:00,73.9,73.0,30.03,SSE,148,1.0,1.0,97,0.00,,,0.00,Wunderground v.1.15,2013-06-05 05:50:00,
2013-06-05 01:56:00,74.0,73.1,30.03,SE,124,1.0,10.0,97,0.00,,,0.00,Wunderground v.1.15,2013-06-05 05:56:00,
2013-06-05 02:02:00,74.1,73.2,30.03,SE,124,0.0,10.0,97,0.00,,,0.00,Wunderground v.1.15,2013-06-05 06:02:00,
2013-06-05 02:08:00,74.1,72.9,30.03,ESE,105,0.0,10.0,96,0.00,,,0.00,Wunderground v.1.15,2013-06-05 06:08:00,
2013-06-05 02:14:00,74.1,72.9,30.02,ESE,107,0.0,10.0,96,0.00,,,0.00,Wunderground v.1.15,2013-06-05 06:14:00,
2013-06-05 02:20:00,74.1,72.9,30.02,ESE,120,0.0,10.0,96,0.00,,,0.00,Wunderground v.1.15,2013-06-05 06:20:00,
2013-06-05 02:26:00,74.1,72.9,30.02,East,94,1.0,10.0,96,0.00,,,0.00,Wunderground v.1.15,2013-06-05 06:26:00,
2013-06-05 02:32:00,74.1,72.9,30.02,East,100,1.0,10.0,96,0.00,,,0.00,Wunderground v.1.15,2013-06-05 06:32:00,
2013-06-05 02:38:00,74.2,73.0,30.02,East,91,0.0,10.0,96,0.00,,,0.00,Wunderground v.1.15,2013-06-05 06:38:00,
2013-06-05 02:44:00,74.2,73.0,30.01,ESE,117,1.0,10.0,96,0.00,,,0.00,Wunderground v.1.15,2013-06-05 06:44:00,
2013-06-05 02:50:00,74.3,73.1,30.01,East,96,2.0,2.0,96,0.00,,,0.00,Wunderground v.1.15,2013-06-05 06:50:00,
2013-06-05 02:56:00,74.3,73.1,30.01,SE,141,1.0,10.0,96,0.00,,,0.00,Wunderground v.1.15,2013-06-05 06:56:00,
2013-06-05 03:02:00,74.4,73.2,30.01,SE,139,1.0,10.0,96,0.00,,,0.00,Wunderground v.1.15,2013-06-05 07:02:00,
2013-06-05 03:08:00,74.4,73.2,30.01,East,96,1.0,10.0,96,0.00,,,0.00,Wunderground v.1.15,2013-06-05 07:08:00,
2013-06-05 03:14:00,74.5,73.3,30.01,SE,140,1.0,10.0,96,0.00,,,0.00,Wunderground v.1.15,2013-06-05 07:14:00,
2013-06-05 03:20:00,74.5,73.3,30.01,SSE,165,1.0,10.0,96,0.00,,,0.00,Wunderground v.1.15,2013-06-05 07:20:00,
2013-06-05 03:26:00,74.5,73.3,30.01,ESE,102,1.0,10.0,96,0.00,,,0.00,Wunderground v.1.15,2013-06-05 07:26:00,
2013-06-05 03:32:00,74.6,73.4,30.01,SSE,151,1.0,10.0,96,0.00,,,0.00,Wunderground v.1.15,2013-06-05 07:32:00,
2013-06-05 03:38:00,74.6,73.4,30.00,ESE,102,2.0,10.0,96,0.00,,,0.00,Wunderground v.1.15,2013-06-05 07:38:00,
2013-06-05 03:44:00,74.6,73.4,30.00,ESE,104,2.0,10.0,96,0.00,,,0.00,Wunderground v.1.15,2013-06-05 07:44:00,
2013-06-05 03:50:00,74.7,73.2,30.01,SE,132,2.0,2.0,95,0.00,,,0.00,Wunderground v.1.15,2013-06-05 07:50:00,
2013-06-05 03:56:00,74.7,73.2,30.01,East,96,1.0,10.0,95,0.00,,,0.00,Wunderground v.1.15,2013-06-05 07:56:00,
2013-06-05 04:02:00,74.8,73.3,30.01,East,101,2.0,10.0,95,0.00,,,0.00,Wunderground v.1.15,2013-06-05 08:02:00,
2013-06-05 04:08:00,74.8,73.3,30.01,East,81,1.0,10.0,95,0.00,,,0.00,Wunderground v.1.15,2013-06-05 08:08:00,
2013-06-05 04:14:00,74.8,73.3,30.01,South,172,1.0,10.0,95,0.00,,,0.00,Wunderground v.1.15,2013-06-05 08:14:00,
2013-06-05 04:20:00,74.8,73.3,30.00,SE,134,2.0,2.0,95,0.00,,,0.00,Wunderground v.1.15,2013-06-05 08:20:00,
2013-06-05 04:26:00,74.8,73.3,30.01,SE,143,1.0,10.0,95,0.00,,,0.00,Wunderground v.1.15,2013-06-05 08:26:00,
2013-06-05 04:32:00,74.9,73.4,30.01,South,172,2.0,4.0,95,0.00,,,0.00,Wunderground v.1.15,2013-06-05 08:32:00,
2013-06-05 04:38:00,75.0,73.5,30.01,SE,124,2.0,10.0,95,0.00,,,0.00,Wunderground v.1.15,2013-06-05 08:38:00,
2013-06-05 04:44:00,75.0,73.5,30.01,SSE,149,2.0,10.0,95,0.00,,,0.00,Wunderground v.1.15,2013-06-05 08:44:00,
2013-06-05 04:50:00,75.0,73.5,30.01,SE,124,2.0,2.0,95,0.00,,,0.00,Wunderground v.1.15,2013-06-05 08:50:00,
2013-06-05 04:56:00,75.1,73.3,30.01,SSE,159,2.0,10.0,94,0.00,,,0.00,Wunderground v.1.15,2013-06-05 08:56:00,
2013-06-05 05:02:00,75.1,73.3,30.01,SE,136,2.0,10.0,94,0.00,,,0.00,Wunderground v.1.15,2013-06-05 09:02:00,
2013-06-05 05:08:00,75.0,73.2,30.01,SSE,160,2.0,10.0,94,0.00,,,0.00,Wunderground v.1.15,2013-06-05 09:08:00,
2013-06-05 05:14:00,75.0,73.2,30.02,East,96,2.0,10.0,94,0.00,,,0.00,Wunderground v.1.15,2013-06-05 09:14:00,
2013-06-05 05:20:00,74.9,73.1,30.02,East,86,2.0,2.0,94,0.00,,,0.00,Wunderground v.1.15,2013-06-05 09:20:00,
2013-06-05 05:26:00,75.0,73.2,30.02,SSE,159,2.0,10.0,94,0.00,,,0.00,Wunderground v.1.15,2013-06-05 09:26:00,
2013-06-05 05:32:00,75.0,73.2,30.02,SE,141,2.0,10.0,94,0.00,,,0.00,Wunderground v.1.15,2013-06-05 09:32:00,
2013-06-05 05:38:00,75.0,73.2,30.02,SSE,162,2.0,10.0,94,0.00,,,0.00,Wunderground v.1.15,2013-06-05 09:38:00,
2013-06-05 05:44:00,75.0,73.2,30.02,ESE,116,2.0,10.0,94,0.00,,,0.00,Wunderground v.1.15,2013-06-05 09:44:00,
2013-06-05 05:50:00,75.0,73.2,30.02,SE,131,2.0,10.0,94,0.00,,,0.00,Wunderground v.1.15,2013-06-05 09:50:00,
2013-06-05 05:56:00,75.0,73.2,30.03,ESE,111,2.0,10.0,94,0.00,,,0.00,Wunderground v.1.15,2013-06-05 09:56:00,
2013-06-05 06:02:00,75.0,73.2,30.03,ESE,117,1.0,10.0,94,0.00,,,0.00,Wunderground v.1.15,2013-06-05 10:02:00,
2013-06-05 06:08:00,75.0,73.2,30.03,SSE,153,1.0,10.0,94,0.00,,,0.00,Wunderground v.1.15,2013-06-05 10:08:00,
2013-06-05 06:14:00,74.9,73.1,30.02,SE,130,1.0,10.0,94,0.00,,,0.00,Wunderground v.1.15,2013-06-05 10:14:00,
2013-06-05 06:20:00,75.0,73.2,30.03,East,91,2.0,10.0,94,0.00,,,0.00,Wunderground v.1.15,2013-06-05 10:20:00,
2013-06-05 06:26:00,75.0,73.2,30.02,SE,142,1.0,10.0,94,0.00,,,0.00,Wunderground v.1.15,2013-06-05 10:26:00,
2013-06-05 06:32:00,74.9,73.1,30.02,East,84,1.0,10.0,94,0.00,,,0.00,Wunderground v.1.15,2013-06-05 10:32:00,
2013-06-05 06:38:00,75.0,73.2,30.03,East,81,1.0,10.0,94,0.00,,,0.00,Wunderground v.1.15,2013-06-05 10:38:00,
2013-06-05 06:44:00,75.0,73.2,30.03,East,97,1.0,10.0,94,0.00,,,0.00,Wunderground v.1.15,2013-06-05 10:44:00,
2013-06-05 06:50:00,75.0,73.2,30.03,SW,232,1.0,10.0,94,0.00,,,0.00,Wunderground v.1.15,2013-06-05 10:50:00,
2013-06-05 06:56:00,75.1,73.3,30.03,East,93,1.0,10.0,94,0.00,,,0.00,Wunderground v.1.15,2013-06-05 10:56:00,
2013-06-05 07:02:00,75.1,73.3,30.04,SE,138,1.0,10.0,94,0.00,,,0.00,Wunderground v.1.15,2013-06-05 11:02:00,
2013-06-05 07:08:00,75.1,73.3,30.04,SSE,160,1.0,10.0,94,0.00,,,0.00,Wunderground v.1.15,2013-06-05 11:08:00,
2013-06-05 07:14:00,75.1,73.3,30.04,ESE,122,1.0,10.0,94,0.00,,,0.00,Wunderground v.1.15,2013-06-05 11:14:00,
2013-06-05 07:20:00,75.1,73.3,30.03,ESE,114,2.0,2.0,94,0.00,,,0.00,Wunderground v.1.15,2013-06-05 11:20:00,
2013-06-05 07:26:00,75.2,73.4,30.03,SSE,152,2.0,10.0,94,0.00,,,0.00,Wunderground v.1.15,2013-06-05 11:26:00,
2013-06-05 07:32:00,75.2,73.4,30.03,SSE,155,1.0,3.0,94,0.00,,,0.00,Wunderground v.1.15,2013-06-05 11:32:00,
2013-06-05 07:38:00,75.2,73.4,30.03,SSE,155,3.0,10.0,94,0.00,,,0.00,Wunderground v.1.15,2013-06-05 11:38:00,
2013-06-05 07:44:00,75.2,73.4,30.04,ESE,122,2.0,10.0,94,0.00,,,0.00,Wunderground v.1.15,2013-06-05 11:44:00,
2013-06-05 07:50:00,75.2,73.4,30.04,ESE,115,1.0,10.0,94,0.00,,,0.00,Wunderground v.1.15,2013-06-05 11:50:00,
2013-06-05 07:56:00,75.2,73.4,30.04,South,191,2.0,10.0,94,0.00,,,0.00,Wunderground v.1.15,2013-06-05 11:56:00,
2013-06-05 08:02:00,75.2,73.0,30.04,East,82,3.0,10.0,93,0.00,,,0.00,Wunderground v.1.15,2013-06-05 12:02:00,
2013-06-05 08:08:00,75.3,73.5,30.04,SSE,158,3.0,10.0,94,0.00,,,0.01,Wunderground v.1.15,2013-06-05 12:08:00,
2013-06-05 08:14:00,75.3,73.5,30.04,SE,139,3.0,10.0,94,0.39,,,0.04,Wunderground v.1.15,2013-06-05 12:14:00,
2013-06-05 08:20:00,75.1,73.3,30.04,East,96,3.0,3.0,94,0.12,,,0.05,Wunderground v.1.15,2013-06-05 12:20:00,
2013-06-05 08:26:00,75.0,73.5,30.05,ESE,102,3.0,10.0,95,0.08,,,0.06,Wunderground v.1.15,2013-06-05 12:26:00,
2013-06-05 08:32:00,75.1,73.6,30.05,East,89,1.0,3.0,95,0.06,,,0.06,Wunderground v.1.15,2013-06-05 12:32:00,
2013-06-05 08:38:00,75.0,73.5,30.06,SE,134,1.0,10.0,95,0.04,,,0.06,Wunderground v.1.15,2013-06-05 12:38:00,
2013-06-05 08:44:00,75.0,73.5,30.06,East,98,1.0,10.0,95,0.00,,,0.06,Wunderground v.1.15,2013-06-05 12:44:00,
2013-06-05 08:50:00,75.0,73.5,30.05,ESE,122,1.0,10.0,95,0.00,,,0.06,Wunderground v.1.15,2013-06-05 12:50:00,
2013-06-05 08:56:00,75.0,73.5,30.05,East,89,1.0,10.0,95,0.00,,,0.06,Wunderground v.1.15,2013-06-05 12:56:00,
2013-06-05 09:02:00,75.0,73.5,30.05,South,173,2.0,10.0,95,0.00,,,0.06,Wunderground v.1.15,2013-06-05 13:02:00,
2013-06-05 09:08:00,75.1,73.3,30.06,NE,50,2.0,10.0,94,0.00,,,0.06,Wunderground v.1.15,2013-06-05 13:08:00,
2013-06-05 09:14:00,75.3,73.8,30.05,ESE,113,3.0,10.0,95,0.00,,,0.06,Wunderground v.1.15,2013-06-05 13:14:00,
2013-06-05 09:20:00,75.5,73.7,30.06,SE,143,3.0,3.0,94,0.00,,,0.06,Wunderground v.1.15,2013-06-05 13:20:00,
2013-06-05 09:26:00,75.7,73.8,30.06,SSE,159,3.0,10.0,94,0.00,,,0.06,Wunderground v.1.15,2013-06-05 13:26:00,
2013-06-05 09:32:00,75.8,73.6,30.06,SE,141,2.0,10.0,93,0.00,,,0.06,Wunderground v.1.15,2013-06-05 13:32:00,
2013-06-05 09:38:00,75.7,73.5,30.06,ESE,115,3.0,10.0,93,0.00,,,0.06,Wunderground v.1.15,2013-06-05 13:38:00,
2013-06-05 09:44:00,75.7,73.5,30.06,SE,124,2.0,10.0,93,0.00,,,0.06,Wunderground v.1.15,2013-06-05 13:44:00,
2013-06-05 09:50:00,75.7,73.5,30.05,East,99,2.0,2.0,93,0.00,,,0.06,Wunderground v.1.15,2013-06-05 13:50:00,
2013-06-05 09:56:00,75.7,73.8,30.05,SE,131,2.0,10.0,94,0.00,,,0.06,Wunderground v.1.15,2013-06-05 13:56:00,
2013-06-05 10:02:00,75.6,73.4,30.05,East,86,2.0,10.0,93,0.00,,,0.06,Wunderground v.1.15,2013-06-05 14:02:00,
2013-06-05 10:08:00,75.5,73.7,30.06,SSE,155,2.0,10.0,94,0.00,,,0.06,Wunderground v.1.15,2013-06-05 14:08:00,
2013-06-05 10:14:00,75.3,73.5,30.06,ESE,120,1.0,10.0,94,0.00,,,0.06,Wunderground v.1.15,2013-06-05 14:14:00,
2013-06-05 10:20:00,75.2,73.4,30.06,ENE,75,2.0,2.0,94,0.00,,,0.07,Wunderground v.1.15,2013-06-05 14:20:00,
2013-06-05 10:26:00,75.0,73.5,30.06,East,79,1.0,10.0,95,0.06,,,0.08,Wunderground v.1.15,2013-06-05 14:26:00,
2013-06-05 10:32:00,74.9,73.4,30.05,SE,133,2.0,10.0,95,0.11,,,0.09,Wunderground v.1.15,2013-06-05 14:32:00,
2013-06-05 10:38:00,74.8,73.3,30.05,East,79,2.0,10.0,95,0.13,,,0.10,Wunderground v.1.15,2013-06-05 14:38:00,
2013-06-05 10:44:00,74.8,73.3,30.05,East,94,1.0,10.0,95,0.11,,,0.11,Wunderground v.1.15,2013-06-05 14:44:00,
2013-06-05 10:50:00,74.9,73.4,30.05,SE,128,2.0,10.0,95,0.06,,,0.11,Wunderground v.1.15,2013-06-05 14:50:00,
2013-06-05 10:56:00,75.0,73.5,30.05,SE,135,3.0,10.0,95,0.04,,,0.11,Wunderground v.1.15,2013-06-05 14:56:00,
2013-06-05 11:02:00,75.1,73.6,30.05,ENE,63,2.0,10.0,95,0.00,,,0.11,Wunderground v.1.15,2013-06-05 15:02:00,
2013-06-05 11:08:00,75.3,73.8,30.05,ENE,62,1.0,10.0,95,0.00,,,0.11,Wunderground v.1.15,2013-06-05 15:08:00,
2013-06-05 11:14:00,75.4,73.9,30.05,ESE,117,2.0,10.0,95,0.00,,,0.11,Wunderground v.1.15,2013-06-05 15:14:00,
2013-06-05 11:20:00,75.7,73.8,30.05,East,95,3.0,3.0,94,0.00,,,0.11,Wunderground v.1.15,2013-06-05 15:20:00,
2013-06-05 11:26:00,76.1,74.2,30.05,SE,127,2.0,10.0,94,0.00,,,0.11,Wunderground v.1.15,2013-06-05 15:26:00,
2013-06-05 11:32:00,76.5,74.3,30.05,ESE,123,2.0,10.0,93,0.00,,,0.11,Wunderground v.1.15,2013-06-05 15:32:00,
2013-06-05 11:38:00,76.8,74.3,30.05,ENE,75,3.0,10.0,92,0.00,,,0.11,Wunderground v.1.15,2013-06-05 15:38:00,
2013-06-05 11:44:00,77.0,74.2,30.05,ESE,118,3.0,10.0,91,0.00,,,0.11,Wunderground v.1.15,2013-06-05 15:44:00,
2013-06-05 11:50:00,77.0,73.8,30.05,ESE,118,3.0,10.0,90,0.00,,,0.11,Wunderground v.1.15,2013-06-05 15:50:00,
2013-06-05 11:56:00,77.0,73.8,30.05,SE,144,4.0,10.0,90,0.00,,,0.11,Wunderground v.1.15,2013-06-05 15:56:00,
2013-06-05 12:02:00,76.9,73.7,30.06,South,191,3.0,10.0,90,0.00,,,0.11,Wunderground v.1.15,2013-06-05 16:02:00,
2013-06-05 12:08:00,76.6,73.4,30.06,East,96,3.0,10.0,90,0.00,,,0.11,Wunderground v.1.15,2013-06-05 16:08:00,
2013-06-05 12:14:00,76.5,73.7,30.06,ESE,122,3.0,10.0,91,0.00,,,0.11,Wunderground v.1.15,2013-06-05 16:14:00,
2013-06-05 12:20:00,76.5,73.7,30.05,ESE,117,3.0,10.0,91,0.00,,,0.11,Wunderground v.1.15,2013-06-05 16:20:00,
2013-06-05 12:26:00,76.5,73.7,30.05,SSE,153,3.0,10.0,91,0.00,,,0.11,Wunderground v.1.15,2013-06-05 16:26:00,
2013-06-05 12:32:00,76.6,73.8,30.05,SE,137,3.0,10.0,91,0.00,,,0.11,Wunderground v.1.15,2013-06-05 16:32:00,
2013-06-05 12:38:00,76.7,73.5,30.05,ENE,77,3.0,10.0,90,0.00,,,0.11,Wunderground v.1.15,2013-06-05 16:38:00,
2013-06-05 12:44:00,76.8,74.0,30.05,SE,127,3.0,10.0,91,0.00,,,0.11,Wunderground v.1.15,2013-06-05 16:44:00,
2013-06-05 12:50:00,77.1,74.3,30.05,ENE,75,4.0,4.0,91,0.00,,,0.11,Wunderground v.1.15,2013-06-05 16:50:00,
2013-06-05 12:56:00,77.4,74.2,30.05,SSE,163,4.0,10.0,90,0.00,,,0.11,Wunderground v.1.15,2013-06-05 16:56:00,
2013-06-05 13:02:00,77.4,73.9,30.05,East,101,4.0,6.0,89,0.00,,,0.11,Wunderground v.1.15,2013-06-05 17:02:00,
2013-06-05 13:08:00,77.3,73.8,30.05,ESE,115,4.0,10.0,89,0.00,,,0.11,Wunderground v.1.15,2013-06-05 17:08:00,
2013-06-05 13:14:00,77.2,73.7,30.05,SSE,149,4.0,10.0,89,0.00,,,0.11,Wunderground v.1.15,2013-06-05 17:14:00,
2013-06-05 13:20:00,77.1,73.9,30.05,SSE,147,4.0,10.0,90,0.00,,,0.11,Wunderground v.1.15,2013-06-05 17:20:00,
2013-06-05 13:26:00,77.2,74.0,30.04,East,92,3.0,10.0,90,0.00,,,0.11,Wunderground v.1.15,2013-06-05 17:26:00,
2013-06-05 13:32:00,77.5,74.0,30.04,SE,124,3.0,10.0,89,0.00,,,0.11,Wunderground v.1.15,2013-06-05 17:32:00,
2013-06-05 13:38:00,77.5,73.7,30.04,South,169,4.0,10.0,88,0.00,,,0.11,Wunderground v.1.15,2013-06-05 17:38:00,
2013-06-05 13:44:00,77.4,73.9,30.04,East,89,4.0,10.0,89,0.00,,,0.11,Wunderground v.1.15,2013-06-05 17:44:00,
2013-06-05 13:50:00,77.4,73.9,30.04,SSE,151,4.0,4.0,89,0.00,,,0.11,Wunderground v.1.15,2013-06-05 17:50:00,
2013-06-05 13:56:00,77.2,73.7,30.03,ENE,74,3.0,10.0,89,0.00,,,0.11,Wunderground v.1.15,2013-06-05 17:56:00,
2013-06-05 14:02:00,76.8,73.6,30.03,ESE,108,3.0,10.0,90,0.00,,,0.11,Wunderground v.1.15,2013-06-05 18:02:00,
2013-06-05 14:08:00,76.6,73.8,30.03,ESE,113,3.0,10.0,91,0.00,,,0.11,Wunderground v.1.15,2013-06-05 18:08:00,
2013-06-05 14:14:00,76.7,73.5,30.03,East,92,3.0,10.0,90,0.00,,,0.11,Wunderground v.1.15,2013-06-05 18:14:00,
2013-06-05 14:20:00,76.8,73.6,30.03,ENE,68,4.0,4.0,90,0.00,,,0.11,Wunderground v.1.15,2013-06-05 18:20:00,
2013-06-05 14:26:00,77.1,73.9,30.02,East,86,4.0,10.0,90,0.00,,,0.11,Wunderground v.1.15,2013-06-05 18:26:00,
2013-06-05 14:32:00,77.1,73.6,30.03,ESE,108,5.0,10.0,89,0.00,,,0.11,Wunderground v.1.15,2013-06-05 18:32:00,
2013-06-05 14:38:00,77.0,73.8,30.02,East,91,5.0,10.0,90,0.00,,,0.11,Wunderground v.1.15,2013-06-05 18:38:00,
2013-06-05 14:44:00,77.0,73.8,30.02,East,84,4.0,10.0,90,0.00,,,0.11,Wunderground v.1.15,2013-06-05 18:44:00,
2013-06-05 14:50:00,77.0,73.8,30.02,South,171,5.0,5.0,90,0.00,,,0.11,Wunderground v.1.15,2013-06-05 18:50:00,
2013-06-05 14:56:00,77.0,73.8,30.02,East,92,4.0,10.0,90,0.00,,,0.11,Wunderground v.1.15,2013-06-05 18:56:00,
2013-06-05 15:02:00,77.2,74.0,30.01,ENE,64,3.0,10.0,90,0.00,,,0.11,Wunderground v.1.15,2013-06-05 19:02:00,
2013-06-05 15:08:00,77.5,74.0,30.02,East,90,4.0,10.0,89,0.00,,,0.11,Wunderground v.1.15,2013-06-05 19:08:00,
2013-06-05 15:14:00,77.5,74.0,30.01,SE,129,4.0,10.0,89,0.00,,,0.11,Wunderground v.1.15,2013-06-05 19:14:00,
2013-06-05 15:20:00,77.6,74.1,30.02,East,90,4.0,4.0,89,0.00,,,0.11,Wunderground v.1.15,2013-06-05 19:20:00,
2013-06-05 15:26:00,77.6,74.1,30.01,SSE,155,4.0,10.0,89,0.00,,,0.11,Wunderground v.1.15,2013-06-05 19:26:00,
2013-06-05 15:32:00,77.8,74.3,30.01,SE,142,4.0,6.0,89,0.00,,,0.11,Wunderground v.1.15,2013-06-05 19:32:00,
2013-06-05 15:38:00,78.2,74.7,30.01,ESE,110,4.0,10.0,89,0.00,,,0.11,Wunderground v.1.15,2013-06-05 19:38:00,
2013-06-05 15:44:00,78.1,74.3,30.01,SE,128,4.0,10.0,88,0.00,,,0.11,Wunderground v.1.15,2013-06-05 19:44:00,
2013-06-05 15:50:00,77.8,74.0,30.01,SSE,153,4.0,4.0,88,0.00,,,0.11,Wunderground v.1.15,2013-06-05 19:50:00,
2013-06-05 15:56:00,77.7,74.2,30.01,East,95,4.0,10.0,89,0.00,,,0.11,Wunderground v.1.15,2013-06-05 19:56:00,
2013-06-05 16:02:00,77.5,74.0,30.01,SE,127,3.0,10.0,89,0.00,,,0.11,Wunderground v.1.15,2013-06-05 20:02:00,
2013-06-05 16:08:00,77.2,74.0,30.01,East,91,3.0,10.0,90,0.00,,,0.11,Wunderground v.1.15,2013-06-05 20:08:00,
2013-06-05 16:14:00,77.1,73.9,30.00,East,98,3.0,10.0,90,0.00,,,0.11,Wunderground v.1.15,2013-06-05 20:14:00,
2013-06-05 16:20:00,77.1,73.9,30.00,SE,127,4.0,4.0,90,0.00,,,0.11,Wunderground v.1.15,2013-06-05 20:20:00,
2013-06-05 16:26:00,77.2,74.0,30.00,SSE,165,4.0,10.0,90,0.00,,,0.11,Wunderground v.1.15,2013-06-05 20:26:00,
2013-06-05 16:32:00,77.2,74.0,30.00,East,82,4.0,7.0,90,0.00,,,0.11,Wunderground v.1.15,2013-06-05 20:32:00,
2013-06-05 16:38:00,77.1,73.6,29.99,South,173,4.0,10.0,89,0.00,,,0.11,Wunderground v.1.15,2013-06-05 20:38:00,
2013-06-05 16:44:00,77.0,73.5,29.99,SE,125,5.0,10.0,89,0.00,,,0.11,Wunderground v.1.15,2013-06-05 20:44:00,
2013-06-05 16:50:00,77.0,73.8,29.99,SSE,155,5.0,5.0,90,0.00,,,0.11,Wunderground v.1.15,2013-06-05 20:50:00,
2013-06-05 16:56:00,77.0,73.8,29.99,SSE,162,4.0,10.0,90,0.00,,,0.11,Wunderground v.1.15,2013-06-05 20:56:00,
2013-06-05 17:02:00,77.1,73.9,29.99,South,170,3.0,11.0,90,0.00,,,0.11,Wunderground v.1.15,2013-06-05 21:02:00,
2013-06-05 17:08:00,77.1,73.9,29.99,East,88,4.0,11.0,90,0.00,,,0.11,Wunderground v.1.15,2013-06-05 21:08:00,
2013-06-05 17:14:00,77.0,73.8,30.00,SSE,150,4.0,11.0,90,0.00,,,0.11,Wunderground v.1.15,2013-06-05 21:14:00,
2013-06-05 17:20:00,77.0,73.8,29.99,SSE,159,3.0,11.0,90,0.00,,,0.11,Wunderground v.1.15,2013-06-05 21:20:00,
2013-06-05 17:26:00,77.0,73.8,29.99,East,83,4.0,11.0,90,0.00,,,0.11,Wunderground v.1.15,2013-06-05 21:26:00,
2013-06-05 17:32:00,77.0,73.8,30.00,SSE,154,4.0,11.0,90,0.00,,,0.11,Wunderground v.1.15,2013-06-05 21:32:00,
2013-06-05 17:38:00,77.0,73.8,29.99,ESE,111,4.0,11.0,90,0.00,,,0.11,Wunderground v.1.15,2013-06-05 21:38:00,
2013-06-05 17:44:00,76.9,73.7,29.99,ESE,122,4.0,11.0,90,0.00,,,0.11,Wunderground v.1.15,2013-06-05 21:44:00,
2013-06-05 17:50:00,76.9,73.7,29.99,SSE,148,4.0,12.0,90,0.00,,,0.11,Wunderground v.1.15,2013-06-05 21:50:00,
2013-06-05 17:56:00,76.8,73.6,29.99,East,97,4.0,12.0,90,0.00,,,0.11,Wunderground v.1.15,2013-06-05 21:56:00,
2013-06-05 18:02:00,76.8,74.0,29.99,East,80,3.0,11.0,91,0.00,,,0.11,Wunderground v.1.15,2013-06-05 22:02:00,
2013-06-05 18:08:00,76.8,73.6,29.99,South,172,3.0,11.0,90,0.00,,,0.11,Wunderground v.1.15,2013-06-05 22:08:00,
2013-06-05 18:14:00,76.8,73.6,29.99,East,94,3.0,11.0,90,0.00,,,0.11,Wunderground v.1.15,2013-06-05 22:14:00,
2013-06-05 18:20:00,76.8,73.6,29.99,East,82,2.0,11.0,90,0.00,,,0.11,Wunderground v.1.15,2013-06-05 22:20:00,
2013-06-05 18:26:00,76.7,73.5,29.99,ESE,119,2.0,11.0,90,0.00,,,0.11,Wunderground v.1.15,2013-06-05 22:26:00,
2013-06-05 18:32:00,76.6,73.4,29.99,South,176,3.0,9.0,90,0.00,,,0.11,Wunderground v.1.15,2013-06-05 22:32:00,
2013-06-05 18:38:00,76.5,73.7,29.99,SE,124,3.0,11.0,91,0.00,,,0.11,Wunderground v.1.15,2013-06-05 22:38:00,
2013-06-05 18:44:00,76.3,73.5,29.99,SE,140,3.0,11.0,91,0.00,,,0.12,Wunderground v.1.15,2013-06-05 22:44:00,
2013-06-05 18:50:00,75.8,73.6,29.99,NNW,337,3.0,3.0,93,1.02,,,0.33,Wunderground v.1.15,2013-06-05 22:50:00,
2013-06-05 18:56:00,75.1,73.3,29.99,South,179,2.0,11.0,94,0.09,,,0.33,Wunderground v.1.15,2013-06-05 22:56:00,
2013-06-05 19:02:00,74.9,73.4,29.99,SW,228,1.0,11.0,95,0.05,,,0.33,Wunderground v.1.15,2013-06-05 23:02:00,
2013-06-05 19:08:00,74.8,73.3,29.99,SW,228,0.0,11.0,95,0.00,,,0.33,Wunderground v.1.15,2013-06-05 23:08:00,
2013-06-05 19:14:00,74.7,73.2,29.99,NW,308,0.0,11.0,95,0.00,,,0.33,Wunderground v.1.15,2013-06-05 23:14:00,
2013-06-05 19:20:00,74.7,73.5,29.99,SE,126,0.0,11.0,96,0.00,,,0.33,Wunderground v.1.15,2013-06-05 23:20:00,
2013-06-05 19:26:00,74.8,73.6,29.99,SSE,157,1.0,11.0,96,0.00,,,0.33,Wunderground v.1.15,2013-06-05 23:26:00,
2013-06-05 19:32:00,74.9,73.7,29.98,SSE,147,2.0,11.0,96,0.00,,,0.33,Wunderground v.1.15,2013-06-05 23:32:00,
2013-06-05 19:38:00,74.9,73.7,29.99,East,87,2.0,11.0,96,0.00,,,0.33,Wunderground v.1.15,2013-06-05 23:38:00,
2013-06-05 19:44:00,74.9,73.7,29.99,SSE,151,1.0,11.0,96,0.00,,,0.33,Wunderground v.1.15,2013-06-05 23:44:00,
2013-06-05 19:50:00,74.9,73.7,29.99,SE,131,1.0,1.0,96,0.00,,,0.33,Wunderground v.1.15,2013-06-05 23:50:00,
2013-06-05 19:56:00,74.8,73.6,29.99,East,90,0.0,11.0,96,0.00,,,0.33,Wunderground v.1.15,2013-06-05 23:56:00,
2013-06-05 20:02:00,74.8,73.6,29.98,ESE,104,0.0,11.0,96,0.00,,,0.33,Wunderground v.1.15,2013-06-06 00:02:00,
2013-06-05 20:08:00,74.7,73.5,29.98,SSE,158,1.0,11.0,96,0.00,,,0.33,Wunderground v.1.15,2013-06-06 00:08:00,
2013-06-05 20:14:00,74.6,73.4,29.98,ENE,72,0.0,11.0,96,0.00,,,0.33,Wunderground v.1.15,2013-06-06 00:14:00,
2013-06-05 20:20:00,74.6,73.4,29.98,SSE,158,0.0,11.0,96,0.00,,,0.33,Wunderground v.1.15,2013-06-06 00:20:00,
2013-06-05 20:26:00,74.5,73.3,29.98,ESE,110,0.0,11.0,96,0.00,,,0.33,Wunderground v.1.15,2013-06-06 00:26:00,
2013-06-05 20:32:00,74.5,73.3,29.98,ESE,120,1.0,2.0,96,0.00,,,0.33,Wunderground v.1.15,2013-06-06 00:32:00,
2013-06-05 20:38:00,74.5,73.3,29.98,ESE,115,0.0,11.0,96,0.00,,,0.33,Wunderground v.1.15,2013-06-06 00:38:00,
2013-06-05 20:44:00,74.5,73.3,29.98,ESE,123,1.0,11.0,96,0.00,,,0.33,Wunderground v.1.15,2013-06-06 00:44:00,
2013-06-05 20:50:00,74.5,73.3,29.98,SSE,151,1.0,1.0,96,0.00,,,0.33,Wunderground v.1.15,2013-06-06 00:50:00,
2013-06-05 20:56:00,74.4,73.2,29.98,SE,140,1.0,11.0,96,0.00,,,0.33,Wunderground v.1.15,2013-06-06 00:56:00,
2013-06-05 21:02:00,74.4,73.2,29.98,ESE,106,1.0,11.0,96,0.00,,,0.33,Wunderground v.1.15,2013-06-06 01:02:00,
2013-06-05 21:08:00,74.3,73.1,29.98,SE,127,1.0,11.0,96,0.00,,,0.33,Wunderground v.1.15,2013-06-06 01:08:00,
2013-06-05 21:14:00,74.3,73.1,29.98,SE,136,0.0,11.0,96,0.00,,,0.33,Wunderground v.1.15,2013-06-06 01:14:00,
2013-06-05 21:20:00,74.3,73.1,29.99,SSE,153,0.0,11.0,96,0.00,,,0.33,Wunderground v.1.15,2013-06-06 01:20:00,
2013-06-05 21:26:00,74.2,73.0,29.99,SE,146,1.0,11.0,96,0.00,,,0.33,Wunderground v.1.15,2013-06-06 01:26:00,
2013-06-05 21:32:00,74.2,73.0,29.99,SE,131,1.0,11.0,96,0.00,,,0.33,Wunderground v.1.15,2013-06-06 01:32:00,
2013-06-05 21:38:00,74.2,73.0,29.99,SE,125,1.0,11.0,96,0.00,,,0.33,Wunderground v.1.15,2013-06-06 01:38:00,
2013-06-05 21:44:00,74.2,73.0,29.99,ESE,117,0.0,11.0,96,0.00,,,0.33,Wunderground v.1.15,2013-06-06 01:44:00,
2013-06-05 21:50:00,74.2,73.0,29.99,East,92,0.0,11.0,96,0.00,,,0.33,Wunderground v.1.15,2013-06-06 01:50:00,
2013-06-05 21:56:00,74.1,72.9,30.00,SE,133,0.0,11.0,96,0.00,,,0.33,Wunderground v.1.15,2013-06-06 01:56:00,
2013-06-05 22:02:00,74.1,72.9,30.00,SE,129,0.0,11.0,96,0.00,,,0.33,Wunderground v.1.15,2013-06-06 02:02:00,
2013-06-05 22:08:00,74.1,72.9,30.00,SE,137,0.0,11.0,96,0.00,,,0.33,Wunderground v.1.15,2013-06-06 02:08:00,
2013-06-05 22:14:00,74.1,72.9,30.00,SE,137,0.0,11.0,96,0.00,,,0.33,Wunderground v.1.15,2013-06-06 02:14:00,
2013-06-05 22:20:00,74.0,72.8,30.00,SE,137,0.0,11.0,96,0.00,,,0.33,Wunderground v.1.15,2013-06-06 02:20:00,
2013-06-05 22:26:00,74.0,72.8,30.00,SE,137,0.0,11.0,96,0.00,,,0.33,Wunderground v.1.15,2013-06-06 02:26:00,
2013-06-05 22:32:00,74.0,72.8,30.00,SE,137,0.0,11.0,96,0.00,,,0.33,Wunderground v.1.15,2013-06-06 02:32:00,
2013-06-05 22:38:00,74.0,72.8,30.00,SE,137,0.0,11.0,96,0.00,,,0.34,Wunderground v.1.15,2013-06-06 02:38:00,
2013-06-05 22:44:00,74.0,73.1,30.00,ESE,103,0.0,11.0,97,0.00,,,0.34,Wunderground v.1.15,2013-06-06 02:44:00,
2013-06-05 22:50:00,74.0,73.1,30.00,ESE,103,0.0,11.0,97,0.00,,,0.34,Wunderground v.1.15,2013-06-06 02:50:00,
2013-06-05 22:56:00,74.0,73.1,30.00,ESE,103,0.0,11.0,97,0.00,,,0.35,Wunderground v.1.15,2013-06-06 02:56:00,
2013-06-05 23:02:00,74.0,73.1,30.00,ESE,103,0.0,11.0,97,0.00,,,0.35,Wunderground v.1.15,2013-06-06 03:02:00,
2013-06-05 23:08:00,74.0,73.1,30.00,East,79,0.0,11.0,97,0.00,,,0.35,Wunderground v.1.15,2013-06-06 03:08:00,
2013-06-05 23:14:00,74.1,73.2,30.00,SE,146,0.0,11.0,97,0.00,,,0.35,Wunderground v.1.15,2013-06-06 03:14:00,
2013-06-05 23:20:00,74.1,73.2,30.00,ESE,120,0.0,11.0,97,0.00,,,0.35,Wunderground v.1.15,2013-06-06 03:20:00,
2013-06-05 23:26:00,74.2,73.3,30.00,ESE,113,0.0,11.0,97,0.00,,,0.35,Wunderground v.1.15,2013-06-06 03:26:00,
2013-06-05 23:32:00,74.2,73.3,29.99,SE,130,1.0,11.0,97,0.00,,,0.36,Wunderground v.1.15,2013-06-06 03:32:00,
2013-06-05 23:38:00,74.2,73.3,29.99,SE,132,1.0,11.0,97,0.00,,,0.36,Wunderground v.1.15,2013-06-06 03:38:00,
2013-06-05 23:44:00,74.2,73.3,29.99,SE,143,1.0,11.0,97,0.00,,,0.36,Wunderground v.1.15,2013-06-06 03:44:00,
2013-06-05 23:50:00,74.2,73.3,29.99,SE,136,1.0,1.0,97,0.00,,,0.36,Wunderground v.1.15,2013-06-06 03:50:00,
2013-06-05 23:56:00,74.2,73.3,29.99,SSE,147,1.0,11.0,97,0.00,,,0.36,Wunderground v.1.15,2013-06-06 03:56:00,